TimeEST,TemperatureF,Dew PointF,Humidity,Sea Level PressureIn,VisibilityMPH,Wind Direction,Wind SpeedMPH,Gust SpeedMPH,PrecipitationIn,Events,Conditions,WindDirDegrees,DateUTC
12:15 AM,44.6,42.8,93,30.39,-9999.0,Calm,Calm,-,N/A,,Unknown,0,2012-11-11 05:15:00
12:35 AM,42.8,41.0,93,30.39,-9999.0,Calm,Calm,-,N/A,,Unknown,0,2012-11-11 05:35:00
1:55 AM,42.8,42.8,100,30.39,-9999.0,Calm,Calm,-,N/A,,Unknown,0,2012-11-11 06:55:00
2:15 AM,42.8,42.8,100,30.38,-9999.0,Calm,Calm,-,N/A,,Unknown,0,2012-11-11 07:15:00
2:35 AM,42.8,42.8,100,30.39,-9999.0,Calm,Calm,-,N/A,,Unknown,0,2012-11-11 07:35:00
2:55 AM,42.8,42.8,100,30.39,-9999.0,Calm,Calm,-,N/A,,Unknown,0,2012-11-11 07:55:00
3:15 AM,42.8,42.8,100,30.39,-9999.0,Calm,Calm,-,N/A,,Unknown,0,2012-11-11 08:15:00
3:35 AM,42.8,42.8,100,30.39,-9999.0,Calm,Calm,-,N/A,,Unknown,0,2012-11-11 08:35:00
3:55 AM,42.8,42.8,100,30.39,10.0,Calm,Calm,-,N/A,,Clear,0,2012-11-11 08:55:00
4:15 AM,42.8,42.8,100,30.40,10.0,Calm,Calm,-,N/A,,Clear,0,2012-11-11 09:15:00
4:35 AM,42.8,42.8,100,30.40,10.0,Calm,Calm,-,N/A,,Clear,0,2012-11-11 09:35:00
4:55 AM,42.8,42.8,100,30.40,10.0,Calm,Calm,-,N/A,,Clear,0,2012-11-11 09:55:00
5:15 AM,42.8,42.8,100,30.41,10.0,Calm,Calm,-,N/A,,Clear,0,2012-11-11 10:15:00
5:35 AM,42.8,42.8,100,30.41,10.0,Calm,Calm,-,N/A,,Clear,0,2012-11-11 10:35:00
5:55 AM,42.8,42.8,100,30.41,10.0,Calm,Calm,-,N/A,,Clear,0,2012-11-11 10:55:00
6:15 AM,42.8,42.8,100,30.42,10.0,Calm,Calm,-,N/A,,Clear,0,2012-11-11 11:15:00
6:35 AM,42.8,42.8,100,30.42,-9999.0,Calm,Calm,-,N/A,,Unknown,0,2012-11-11 11:35:00
6:55 AM,42.8,42.8,100,30.44,10.0,Calm,Calm,-,N/A,,Clear,0,2012-11-11 11:55:00
7:15 AM,42.8,42.8,100,30.44,-9999.0,Calm,Calm,-,N/A,,Unknown,0,2012-11-11 12:15:00
7:35 AM,44.6,44.6,100,30.45,-9999.0,Calm,Calm,-,N/A,,Unknown,0,2012-11-11 12:35:00
7:55 AM,46.4,46.4,100,30.46,-9999.0,Calm,Calm,-,N/A,,Unknown,0,2012-11-11 12:55:00
8:35 AM,53.6,51.8,94,30.46,-9999.0,Calm,Calm,-,N/A,,Unknown,0,2012-11-11 13:35:00
8:55 AM,57.2,51.8,82,30.47,-9999.0,Calm,Calm,-,N/A,,Clear,0,2012-11-11 13:55:00
9:15 AM,60.8,53.6,77,30.47,-9999.0,Calm,Calm,-,N/A,,Clear,0,2012-11-11 14:15:00
9:35 AM,62.6,55.4,77,30.46,-9999.0,NE,4.6,-,N/A,,Clear,50,2012-11-11 14:35:00
9:55 AM,66.2,57.2,73,30.46,-9999.0,ENE,6.9,-,N/A,,Clear,70,2012-11-11 14:55:00
10:55 AM,71.6,60.8,69,30.45,-9999.0,ENE,6.9,-,N/A,,Clear,70,2012-11-11 15:55:00
11:15 AM,71.6,60.8,69,30.45,-9999.0,ENE,4.6,-,N/A,,Clear,60,2012-11-11 16:15:00
11:35 AM,73.4,60.8,65,30.45,-9999.0,Calm,Calm,-,N/A,,Clear,0,2012-11-11 16:35:00
11:55 AM,73.4,60.8,65,30.44,-9999.0,NNE,4.6,-,N/A,,Clear,30,2012-11-11 16:55:00
12:15 PM,73.4,60.8,65,30.43,-9999.0,East,4.6,-,N/A,,Clear,100,2012-11-11 17:15:00
12:35 PM,75.2,60.8,61,30.42,-9999.0,East,6.9,-,N/A,,Clear,80,2012-11-11 17:35:00
12:55 PM,75.2,60.8,61,30.42,-9999.0,East,8.1,-,N/A,,Clear,100,2012-11-11 17:55:00
1:15 PM,77.0,60.8,57,30.41,-9999.0,SSE,5.8,-,N/A,,Clear,150,2012-11-11 18:15:00
1:35 PM,77.0,60.8,57,30.41,-9999.0,East,10.4,-,N/A,,Clear,100,2012-11-11 18:35:00
1:55 PM,75.2,60.8,61,30.40,-9999.0,ESE,9.2,-,N/A,,Clear,110,2012-11-11 18:55:00
2:15 PM,75.2,60.8,61,30.40,-9999.0,ESE,11.5,-,N/A,,Clear,110,2012-11-11 19:15:00
2:35 PM,75.2,60.8,61,30.40,-9999.0,East,9.2,-,N/A,,Clear,90,2012-11-11 19:35:00
2:55 PM,77.0,62.6,61,30.40,-9999.0,East,11.5,16.1,N/A,,Clear,90,2012-11-11 19:55:00
3:15 PM,73.4,62.6,69,30.40,-9999.0,East,12.7,-,N/A,,Clear,90,2012-11-11 20:15:00
3:35 PM,75.2,62.6,65,30.39,-9999.0,ESE,11.5,-,N/A,,Clear,110,2012-11-11 20:35:00
3:55 PM,73.4,60.8,65,30.40,-9999.0,ESE,10.4,-,N/A,,Clear,110,2012-11-11 20:55:00
4:15 PM,73.4,62.6,69,30.40,-9999.0,East,10.4,-,N/A,,Clear,90,2012-11-11 21:15:00
4:35 PM,71.6,62.6,73,30.40,-9999.0,East,10.4,-,N/A,,Clear,100,2012-11-11 21:35:00
4:55 PM,71.6,62.6,73,30.40,-9999.0,East,8.1,-,N/A,,Clear,100,2012-11-11 21:55:00
5:15 PM,69.8,62.6,78,30.40,10.0,East,6.9,-,N/A,,Clear,100,2012-11-11 22:15:00
5:35 PM,68.0,60.8,78,30.40,10.0,East,5.8,-,N/A,,Clear,100,2012-11-11 22:35:00
5:55 PM,68.0,60.8,78,30.40,10.0,East,4.6,-,N/A,,Clear,80,2012-11-11 22:55:00
6:15 PM,66.2,60.8,83,30.40,10.0,East,4.6,-,N/A,,Clear,90,2012-11-11 23:15:00
6:35 PM,64.4,60.8,88,30.40,10.0,East,5.8,-,N/A,,Clear,90,2012-11-11 23:35:00
6:55 PM,64.4,60.8,88,30.41,10.0,East,3.5,-,N/A,,Clear,80,2012-11-11 23:55:00
7:15 PM,64.4,60.8,88,30.41,10.0,ENE,3.5,-,N/A,,Clear,70,2012-11-12 00:15:00
7:35 PM,64.4,60.8,88,30.41,10.0,East,5.8,-,N/A,,Clear,80,2012-11-12 00:35:00
7:55 PM,64.4,59.0,83,30.41,10.0,East,3.5,-,N/A,,Clear,80,2012-11-12 00:55:00
8:15 PM,64.4,59.0,83,30.41,10.0,ENE,3.5,-,N/A,,Clear,70,2012-11-12 01:15:00
8:35 PM,62.6,59.0,88,30.41,10.0,Calm,Calm,-,N/A,,Clear,0,2012-11-12 01:35:00
8:55 PM,62.6,59.0,88,30.41,10.0,ENE,3.5,-,N/A,,Clear,70,2012-11-12 01:55:00
9:15 PM,62.6,59.0,88,30.41,10.0,ENE,4.6,-,N/A,,Clear,70,2012-11-12 02:15:00
9:35 PM,62.6,59.0,88,30.41,10.0,ENE,3.5,-,N/A,,Clear,70,2012-11-12 02:35:00
9:55 PM,62.6,59.0,88,30.40,10.0,East,4.6,-,N/A,,Clear,80,2012-11-12 02:55:00
10:15 PM,62.6,59.0,88,30.40,10.0,ENE,4.6,-,N/A,,Clear,70,2012-11-12 03:15:00
10:35 PM,60.8,60.8,100,30.40,10.0,ENE,4.6,-,N/A,,Clear,70,2012-11-12 03:35:00
10:55 PM,60.8,60.8,100,30.39,10.0,Calm,Calm,-,N/A,,Clear,0,2012-11-12 03:55:00
11:15 PM,60.8,60.8,100,30.39,10.0,Calm,Calm,-,N/A,,Clear,0,2012-11-12 04:15:00
11:35 PM,60.8,60.8,100,30.39,10.0,Calm,Calm,-,N/A,,Clear,0,2012-11-12 04:35:00